Probability
0 0 0 0 0 0 0 0 0 0 0 0 0 0 0 0 0 0 0 0 0 0 0 0 0 0 0 0 0 0 0 0 0 0 0 0 0 0 0 0 0 0 0 0
0 0 0 0 0 0 0 0 0 0 0 0 0 0 0 0 0 0 0 0 0 0 0 0 0 0 0 0 0 0 0 0 0 0 0 0 0 0 0 0 0 0 0 0
0 0 0 0 0 0 0 0 0 0 0 0 0 0 0 0 0 0 0 0 0 0 0 0 0 0 0 0 0 0 0 0 0 0 0 0 0 0 0 0 0 0 0 0
0 0 0 0 0 0 0 0 0 0 0 0 0 0 0 0 0 0 0 0 0 0 0 0 0 0 0 0 0 0 0 0 0 0 0 0 0 0 0 0 0 0 0 0
0 0 0 0 0 0 0 0 0 0 0 0 0 0 0 0 0 0 0 0 0 0 0 0 0 0 0 0 0 0 0 0 0 0 0 0 0 0 0 0 0 0 0 0
0 0 0 0 0 0 0 0 0 0 0 0 0 0 0 0 0 0 0 0 0 0 0 0 0 0 0 0 0 0 0 0 0 0 0 0 0 0 0 0 0 0 0 0
0 0 0 0 0 0 0 0 0 0 0 0 0 0 0 0 0 0 0 0 0 0 0 0 0 0 0 0 0 0 0 0 0 0 0 0 0 0 0 0 0 0 0 0
0 0 0 0 0 0 0 0 0 0 0 0 0 0 0 0 0 0 0 0 0 0 0 0 0 0 0 0 0 0 0 0 0 0 0 0 0 0 0 0 0 0 0 0
0 0 0 0 0 0 0 0 0 0 0 0 0 0 0 0 0 0 0 0 0 0 0 0 0 0 0 0 0 0 0 0 0 0 0 0 0 0 0 0 0 0 0 0
0 0 0 0 0 0 0 0 0 0 0 0 0 0 0 0 0 0 0 0 0 0 0 0 0 0 0 0 0 0 0 0 0 0 0 0 0 0 0 0 0 0 0 0
0 0 0 0 0 0 0 0 0 0 0 0 0 0 0 0 0 0 0 0 0 0 0 0 0 0 0 0 0 0 0 0 0 0 0 0 0 0 0 0 0 0 0 0
0 0 0 0 0 0 0 0 0 0 0 0 0 0 0 0 0 0 0 0 0 0 0 0 0 0 0 0 0 0 0 0 0 0 0 0 0 0 0 0 0 0 0 0
0 0 0 0 0 0 0 0 0 0 0 0 0 0 0 0 0 0 0 0 0 0 0 0 0 0 0 0 0 0 0 0 0 0 0 0 0 0 0 0 0 0 0 0
0 0 0 0 0 0 0 0 0 0 0 0 0 0 0 0 0 0 0 0 0 0 0 0 0 0 0 0 0 0 0 0 0 0 0 0 0 0 0 0 0 0 0 0
0 0 0 0 0 0 0 0 0 0 0 0 0 0 0 0 0 0 0 0 0 0 0 0 0 0 0 0 0 0 0 0 0 0 0 0 0 0 0 0 0 0 0 0
0 0 0 0 0 0 0 0 0 0 0 0 0 0 0 0 0 0 0 0 0 0 0 0 0 0 0 0 0 0 0 0 0 0 0 0 0 0 0 0 0 0 0 0
0 0 0 0 0 0 0 0 0 0 0 0 0 0 0 0 0 0 0 0 0 0 0 0 0 0 0 0 0 0 0 0 0 0 0 0 0 0 0 0 0 0 0 0
0 0 0 0 0 0 0 0 0 0 0 0 0 0 0 0 0 0 0 0 0 0 0 0 0 0 0 0 0 0 0 0 0 0 0 0 0 0 0 0 0 0 0 0
0 0 0 0 0 0 0 0 0 0 0 0 0 0 0 0 0 0 0 0 0 0 0 0 0 0 0 0 0 0 0 0 0 0 0 0 0 0 0 0 0 0 0 0
0 0 0 0 0 0 0 0 0 0 0 0 0 0 0 0 0 0 0 0 0 0 0 0 0 0 0 0 0 0 0 0 0 0 0 0 0 0 0 0 0 0 0 0
0 0 0 0 0 0 0 0 0 0 0 0 0 0 0 0 0 0 0 0 0 0 0 0 0 0 0 0 0 0 0 0 0 0 0 0 0 0 0 0 0 0 0 0
0 0 0 0 0 0 0 0 0 0 0 0 0 0 0 0 0 0 0 0 0 0 0 0 0 0 0 0 0 0 0 0 0 0 0 0 0 0 0 0 0 0 0 0
0 0 0 0 0 0 0 0 0 0 0 0 0 0 0 0 0 0 0 0 0 0 0 0 0 0 0 0 0 0 0 0 0 0 0 0 0 0 0 0 0 0 0 0
0 0 0 0 0 0 0 0 0 0 0 0 0 0 0 0 0 0 0 0 0 0 0 0 0 0 0 0 0 0 0 0 0 0 0 0 0 0 0 0 0 0 0 0
0 0 0 0 0 0 0 0 0 0 0 0 0 0 0 0 0 0 0 0 0 0 0 0 0 0 0 0 0 0 0 0 0 0 0 0 0 0 0 0 0 0 0 0
0 0 0 0 0 0 0 0 0 0 0 0 0 0 0 0 0 0 0 0 0 0 0 0 0 0 0 0 0 0 0 0 0 0 0 0 0 0 0 0 0 0 0 0
Wind_Speed
2 2 4 7 7 4 1 3 6 7 4 3 5 8 9 6 3 4 6 8 9 8 8 9 8 6 3 2 3 5 6 6 6 5 5 5 6 5 4 6 8 9 9 10
3 5 8 4 3 3 3 4 6 6 2 2 5 7 5 2 1 2 4 6 8 9 11 12 10 8 5 2 0 2 4 6 6 6 4 3 3 3 4 5 7 10 11 11
7 6 1 4 3 4 4 5 5 4 5 2 4 5 2 2 2 2 3 4 5 6 8 9 9 8 6 5 2 1 3 5 5 5 3 2 2 1 1 5 6 9 11 11
6 5 2 4 5 6 5 5 4 2 2 4 3 3 5 2 3 2 3 4 5 6 6 7 8 8 7 6 3 2 0 2 3 5 5 6 5 6 7 5 5 6 9 11
5 3 3 5 6 8 6 1 2 1 2 2 1 1 8 2 4 5 2 2 3 4 5 6 6 6 6 6 5 4 3 1 2 4 5 6 7 7 5 3 5 6 7 10
6 3 3 4 1 3 3 4 4 4 3 1 2 3 6 4 6 4 4 2 0 2 4 5 5 5 6 6 6 5 4 3 1 2 4 5 8 8 7 7 6 6 5 6
3 3 2 3 3 1 3 4 4 4 3 4 1 2 9 5 4 5 6 5 2 1 2 4 6 6 7 8 7 6 5 4 2 0 3 5 7 7 8 8 7 6 5 5
2 4 3 3 5 5 4 6 5 3 3 5 3 5 8 4 4 2 4 4 2 0 1 2 3 4 5 6 6 6 5 4 3 2 3 3 4 4 5 6 6 6 6 7
6 5 1 1 1 7 5 3 4 5 1 3 6 7 8 1 3 3 3 3 2 1 1 2 3 4 4 4 4 4 4 4 4 4 3 3 3 4 5 6 5 5 6 6
8 3 0 0 3 3 3 7 5 4 2 4 6 5 5 4 2 2 2 2 2 1 1 2 3 3 3 3 3 4 4 4 4 5 4 3 4 4 5 5 6 7 7 7
5 4 1 1 5 6 4 3 4 4 4 4 4 8 6 5 5 4 4 3 2 1 1 1 2 2 3 3 4 4 5 5 5 5 5 5 5 5 5 5 7 7 7 7
5 5 2 4 1 3 5 6 7 5 4 5 3 10 3 2 2 3 2 2 1 1 1 1 2 3 3 4 5 5 5 5 5 5 5 5 6 6 6 7 8 7 8 8
7 6 2 3 3 0 2 4 4 4 5 5 6 9 2 1 1 1 1 0 1 2 2 2 3 3 4 5 5 5 5 5 5 5 5 6 7 7 8 8 8 8 8 9
6 5 7 8 6 6 4 5 6 6 5 6 10 10 5 3 2 1 0 1 1 2 2 2 3 4 5 5 5 5 6 5 5 6 6 7 8 8 9 9 9 9 9 9
5 4 5 5 3 3 5 7 8 10 10 11 10 10 8 5 4 3 2 2 2 2 3 3 4 5 5 6 6 6 6 6 5 6 7 8 9 9 9 9 9 9 9 10
4 4 3 2 1 2 5 10 10 11 9 9 8 9 3 1 3 2 2 2 1 2 3 5 5 6 6 6 6 6 6 6 6 7 8 9 9 9 9 10 10 10 10 10
5 7 4 3 1 3 9 11 10 7 7 8 9 6 3 2 2 2 2 1 0 2 4 5 6 6 6 6 5 6 6 6 7 8 9 10 10 10 11 11 11 11 11 10
8 7 4 2 2 8 9 2 5 5 3 5 4 3 4 2 1 1 2 2 1 3 4 5 6 6 6 5 5 6 6 7 8 9 10 10 10 11 11 11 11 12 10 11
4 8 5 4 4 9 9 4 6 7 4 3 6 4 2 1 2 2 1 1 1 3 4 5 5 5 5 6 6 7 8 8 8 10 10 10 10 12 12 13 13 12 12 12
3 4 6 5 5 9 8 2 3 5 4 4 6 5 3 3 1 3 1 2 3 4 4 4 5 5 6 7 6 7 9 9 10 11 11 11 10 12 13 14 14 12 11 13
4 3 5 6 7 11 7 3 5 4 6 6 6 5 5 5 5 3 3 3 3 4 5 5 6 6 7 7 7 8 10 11 11 11 11 11 11 11 13 13 12 12 12 13
10 8 8 7 6 12 3 6 7 5 4 5 5 4 4 4 3 2 3 4 5 5 5 6 6 8 8 7 7 9 11 12 11 11 12 12 11 11 11 12 13 12 12 13
8 9 8 10 8 2 1 4 3 5 5 4 4 3 2 2 2 2 3 4 5 5 6 6 7 9 9 8 7 11 13 12 12 12 12 12 12 10 10 12 13 12 10 11
4 3 4 4 5 2 1 3 3 3 4 3 2 2 2 2 2 3 4 4 5 6 6 6 7 9 11 9 9 10 12 11 12 13 13 12 12 12 10 9 9 10 10 11
4 5 4 4 2 2 2 3 3 3 3 2 2 1 2 2 3 3 4 5 6 6 6 6 8 10 12 11 11 10 10 10 12 12 12 12 11 12 12 10 9 11 10 13
5 7 8 7 7 7 6 5 4 4 2 2 2 1 1 3 4 4 5 6 6 7 7 8 9 10 12 11 11 10 9 9 11 12 11 10 10 10 11 11 12 16 18 24
Wind_Direction
53 78 224 222 206 211 223 245 268 267 283 302 281 287 298 316 352 9 8 4 2 358 348 11 25 40 68 105 167 185 186 181 168 171 185 198 218 213 214 216 213 208 209 206
33 257 238 207 184 200 220 261 274 288 302 289 302 294 294 319 348 352 5 4 1 360 7 14 23 30 37 38 171 200 195 184 184 187 177 184 190 209 214 216 219 215 215 213
207 238 166 155 180 194 225 218 242 272 326 6 334 327 327 341 356 10 25 13 10 14 8 7 15 21 23 18 344 238 206 195 191 175 146 120 107 3 233 224 226 224 221 220
234 261 221 210 220 186 254 233 214 246 335 309 15 304 280 278 307 321 358 8 12 13 15 16 15 16 15 5 2 8 193 188 182 169 172 186 202 224 230 222 228 227 220 224
244 227 198 214 226 181 216 128 161 195 182 310 339 208 285 282 240 245 257 330 10 18 24 25 20 17 19 16 23 26 48 72 155 178 191 201 227 241 252 243 242 237 228 227
244 247 218 214 165 161 140 83 67 59 79 318 228 176 278 235 220 222 218 222 353 24 29 25 21 26 26 23 29 32 44 43 66 183 203 215 235 250 263 262 258 254 242 235
279 249 230 154 123 72 103 80 12 352 8 265 255 210 253 257 247 217 198 195 196 46 35 19 19 19 18 16 18 22 33 27 18 277 233 235 242 249 254 261 262 263 259 249
252 279 225 188 179 172 167 141 158 226 258 291 309 240 255 284 297 234 173 162 162 138 29 15 21 23 14 11 13 14 17 7 356 336 292 266 255 250 256 259 258 259 258 259
191 249 28 116 148 138 135 162 156 132 169 276 287 291 303 351 44 85 122 140 190 238 312 360 17 23 13 3 360 357 355 347 342 333 318 308 290 269 269 274 267 262 262 267
163 203 186 78 90 30 141 142 108 125 174 276 295 281 256 240 195 165 170 207 247 275 337 7 15 7 358 349 339 344 345 333 326 332 327 316 308 294 283 283 280 275 274 272
154 164 214 158 195 188 130 135 123 121 158 173 270 275 230 215 200 194 216 240 257 267 325 6 359 348 343 340 339 337 338 337 333 333 329 325 315 308 300 288 282 280 279 279
155 129 216 250 247 181 176 175 152 162 213 183 197 267 278 212 191 184 220 252 320 76 78 43 11 354 346 338 333 332 331 328 322 321 320 313 306 304 298 290 285 282 280 278
139 123 86 342 345 42 203 185 174 137 131 166 188 258 307 94 85 120 172 171 54 74 63 27 0 342 330 324 324 325 324 320 318 321 317 311 306 303 297 292 290 289 284 283
119 135 171 202 217 187 200 196 172 150 176 210 221 244 266 284 290 272 181 135 110 83 49 8 338 322 316 315 317 320 318 316 316 317 312 305 299 295 292 290 289 287 285 284
119 179 220 238 223 188 216 215 197 200 204 215 234 232 249 250 229 201 167 128 97 48 5 343 325 314 314 318 317 315 311 311 313 313 307 298 294 292 291 290 289 288 285 283
119 164 174 268 251 223 255 244 226 226 225 233 256 266 251 162 130 141 155 133 94 347 327 321 317 313 311 309 306 306 305 306 309 304 298 296 297 296 294 292 291 290 288 285
146 138 147 247 310 357 270 240 217 213 209 198 224 235 148 123 141 181 189 149 7 311 306 307 305 300 300 298 296 297 296 301 303 297 295 296 296 294 292 291 292 291 291 288
146 144 151 169 131 239 243 220 175 182 222 201 177 147 145 157 233 253 184 147 317 309 305 304 302 301 299 294 295 292 295 298 297 295 293 292 292 292 293 293 292 291 289 289
149 141 138 155 218 270 287 238 176 174 225 192 158 151 139 65 21 333 156 110 296 292 290 286 288 288 293 296 295 300 300 299 297 294 292 292 293 295 297 297 296 294 294 293
78 115 134 154 195 242 248 201 153 117 233 206 159 160 163 121 62 267 271 328 312 309 303 300 301 299 299 297 301 302 299 300 297 294 293 294 294 294 296 296 296 295 292 292
127 147 175 184 219 257 249 193 130 177 236 169 164 172 174 184 205 239 309 315 312 311 308 308 307 302 296 299 304 298 297 294 292 294 295 296 294 292 293 293 293 294 295 294
173 174 188 169 203 249 208 144 180 195 140 148 164 177 189 216 253 287 304 306 314 312 307 307 304 300 298 298 297 295 294 294 296 297 297 298 296 294 298 296 296 295 295 297
199 191 185 191 210 258 163 168 154 136 142 161 168 181 181 213 254 286 293 297 297 294 293 293 292 294 296 293 288 290 294 300 302 301 300 300 299 295 292 294 298 300 297 295
231 157 157 220 248 224 139 125 122 124 139 146 143 151 161 206 255 279 282 284 289 289 289 290 295 296 297 296 289 283 292 299 301 302 303 302 302 302 297 293 293 295 297 296
206 164 175 225 223 147 220 195 161 128 108 104 104 139 179 209 253 261 269 278 280 283 285 285 286 287 289 292 291 290 292 298 300 301 301 302 300 300 301 296 291 294 285 288
193 178 179 213 199 182 205 193 165 153 160 164 165 182 209 212 240 259 266 270 274 279 281 284 283 283 288 291 293 293 292 293 297 303 304 303 302 300 300 301 300 294 295 300